Starlink 6288

operational
NORAD ID: 56398 Int'l Des: 2023-061 Owner: SPXS Country: US Constellation: starlink
LEOCIRCULAR

Starlink 6288について

説明を読み込み中...

リアルタイム位置

3D地球を読み込み中...

次回通過

高度履歴

Altitude vs Time

uPlot chart will show altitude changes over time

軌道要素

1 56398U 23061AA 26073.25002315 .00091924 00000-0 57765-2 0 9996
2 56398 43.0011 159.9118 0000363 313.3543 206.4800 15.08227457 5781
Epoch: Mar 14, 2026 • Age: 7 hours

現在のステータス

高度 540.4 km
速度 7.59 km/s
衛星直下点 8.52°N, 155.8°E
打ち上げ日 May 4, 2023
運用期間 2.8 years
タイプ internet

技術仕様

分類 Payload
質量 305.00 kg
乾燥質量 290.00 kg
総質量 305.00 kg
長さ 0.20 m
直径 2.80 m
スパン 9.00 m
形状 Box + pan
製造者 SPXS
バスタイプ Starlink
フェーズステータス In Orbit
所有者/国 SPXS/US

大規模コンステレーション

Loading constellations...